W5MAI Weather Reports


Display with metric or nautical units.
time (UTC)temp
F
wind
direction
speed
MPH
gust
MPH
rain 1hr
in
rain 24hr
in
rain mn
in
humidity
%
barometer
mb
20200221133403 34 33 0.0 1.0 0.00 0.08 0.00 87 1040.6
20200221132407 34 34 0.0 2.0 0.00 0.08 0.00 87 1040.6
20200221131336 34 34 1.0 3.0 0.00 0.08 0.00 87 1040.4
20200221130406 34 34 0.0 2.0 0.00 0.08 0.00 87 1040.1
20200221125336 34 34 0.0 3.0 0.00 0.12 0.00 87 1040.1
20200221124402 34 10 0.0 3.0 0.00 0.12 0.00 86 1040.3
20200221123420 34 12 0.0 2.0 0.00 0.12 0.00 86 1040.2
20200221122323 35 11 0.0 4.0 0.00 0.12 0.00 86 1040.1
20200221121345 35 30 1.0 2.0 0.00 0.12 0.00 86 1039.8
20200221120420 35 5 1.0 4.0 0.00 0.12 0.00 86 1039.6
20200221115345 35 11 1.0 3.0 0.00 0.12 0.00 86 1039.5
20200221114426 35 34 1.0 4.0 0.00 0.12 0.00 86 1039.8
20200221113334 35 326 0.0 3.0 0.00 0.12 0.00 86 1039.5
20200221112405 36 360 1.0 3.0 0.00 0.12 0.00 86 1039.6
20200221111333 36 23 0.0 4.0 0.00 0.12 0.00 86 1039.6
20200221110403 36 38 1.0 4.0 0.00 0.12 0.00 86 1039.5
20200221105332 36 17 0.0 6.0 0.00 0.12 0.00 86 1039.4
20200221104407 36 34 0.0 4.0 0.00 0.12 0.00 86 1039.4
20200221103341 36 5 1.0 2.0 0.00 0.12 0.00 86 1039.3
20200221102409 36 5 0.0 5.0 0.00 0.12 0.00 86 1039.5
20200221101333 36 350 0.0 3.0 0.00 0.12 0.00 86 1039.4
20200221100359 37 16 1.0 4.0 0.00 0.12 0.00 86 1039.3
20200221095328 37 5 0.0 3.0 0.00 0.12 0.00 86 1039.4
20200221093400 37 350 0.0 3.0 0.00 0.12 0.00 86 1039.2
20200221092422 37 40 1.0 3.0 0.00 0.12 0.00 86 1039.2
20200221090348 38 34 0.0 5.0 0.00 0.12 0.00 86 1039.1
20200221085407 38 42 0.0 3.0 0.00 0.12 0.00 85 1039.2
20200221082345 38 138 0.0 6.0 0.00 0.12 0.00 86 1039.4
20200221081326 39 5 1.0 4.0 0.00 0.12 0.00 86 1039.4
20200221080350 39 5 0.0 3.0 0.00 0.12 0.00 86 1039.5
20200221075327 39 22 0.0 4.0 0.00 0.12 0.00 86 1039.5
20200221074335 39 20 1.0 4.0 0.00 0.12 0.00 85 1039.4
20200221073323 39 360 0.0 3.0 0.00 0.12 0.00 86 1039.6
20200221072402 40 11 1.0 5.0 0.00 0.12 0.00 85 1039.6
20200221071329 40 355 1.0 4.0 0.00 0.12 0.00 86 1039.6
20200221070347 40 345 1.0 4.0 0.00 0.12 0.00 86 1039.5
20200221065338 40 5 1.0 4.0 0.00 0.14 0.00 86 1039.6
20200221064327 40 350 0.0 3.0 0.00 0.14 0.00 86 1039.4
20200221063333 40 327 0.0 4.0 0.00 0.14 0.00 87 1039.3
20200221062323 40 28 0.0 2.0 0.00 0.14 0.00 87 1039.4
20200221061339 40 5 0.0 4.0 0.00 0.14 0.00 88 1039.3
20200221060328 40 326 1.0 4.0 0.00 0.14 0.00 88 1039.1
20200221055331 40 337 0.0 4.0 0.00 0.15 0.14 88 1039.0
20200221054405 40 355 0.0 2.0 0.00 0.15 0.14 88 1039.0
20200221053336 40 355 0.0 4.0 0.00 0.15 0.14 89 1039.1
20200221052415 40 355 0.0 3.0 0.00 0.15 0.14 89 1039.1
20200221051420 39 351 0.0 2.0 0.00 0.15 0.14 89 1039.0
20200221050330 39 350 0.0 2.0 0.00 0.15 0.14 89 1039.0
20200221045342 39 350 0.0 2.0 0.00 0.16 0.14 88 1038.9
20200221044335 39 350 0.0 0.0 0.00 0.16 0.14 88 1038.9
20200221043339 39 350 0.0 0.0 0.00 0.16 0.14 87 1038.7
20200221042341 39 350 0.0 1.0 0.00 0.16 0.14 86 1038.7
20200221041341 40 350 0.0 0.0 0.00 0.16 0.14 85 1038.5
20200221040335 40 350 0.0 0.0 0.00 0.16 0.14 84 1038.4
20200221035400 41 350 0.0 0.0 0.00 0.16 0.14 83 1038.4
20200221034355 42 350 0.0 0.0 0.00 0.16 0.14 83 1038.3
20200221033406 42 350 0.0 0.0 0.00 0.16 0.14 83 1038.2
20200221032418 43 350 0.0 0.0 0.00 0.16 0.14 83 1038.0
20200221031330 43 350 0.0 0.0 0.00 0.16 0.14 82 1037.8
20200221030343 44 350 0.0 0.0 0.00 0.16 0.14 82 1037.5
20200221025405 44 350 0.0 1.0 0.00 0.16 0.14 82 1037.4
20200221024418 44 350 0.0 2.0 0.00 0.16 0.14 82 1037.3
20200221023418 44 350 0.0 2.0 0.00 0.16 0.14 82 1037.1
20200221022421 45 346 0.0 2.0 0.00 0.16 0.14 83 1036.9
20200221021334 45 317 0.0 2.0 0.00 0.16 0.14 83 1036.8
20200221020348 45 346 0.0 1.0 0.00 0.16 0.14 84 1036.8
20200221015350 45 350 0.0 2.0 0.00 0.16 0.14 84 1036.8
20200221014337 45 350 0.0 3.0 0.00 0.16 0.14 84 1036.2
20200221013350 45 355 0.0 1.0 0.00 0.16 0.14 84 1035.8
20200221012403 46 355 0.0 3.0 0.00 0.16 0.14 83 1035.5
20200221011352 46 336 0.0 3.0 0.00 0.16 0.14 83 1035.6
20200221010403 46 329 0.0 2.0 0.00 0.16 0.14 83 1035.5
20200221005351 46 355 0.0 2.0 0.00 0.17 0.14 83 1035.3
20200221004406 47 19 0.0 5.0 0.00 0.17 0.14 82 1035.0
20200221003405 47 23 1.0 4.0 0.00 0.17 0.14 81 1034.8
20200221002403 47 33 1.0 5.0 0.00 0.17 0.14 81 1034.5
20200221001405 48 26 0.0 4.0 0.00 0.17 0.14 81 1034.4
20200221000403 48 28 1.0 4.0 0.00 0.17 0.14 81 1034.2
20200220235412 48 355 2.0 8.0 0.00 0.17 0.14 81 1034.0
20200220234420 48 337 2.0 8.0 0.00 0.17 0.14 82 1033.9
20200220233325 47 292 1.0 5.0 0.00 0.17 0.14 82 1033.8
20200220232329 47 42 2.0 6.0 0.00 0.17 0.14 83 1033.7
20200220231326 47 340 1.0 9.0 0.00 0.17 0.14 83 1033.8
20200220230333 47 44 0.0 8.0 0.00 0.17 0.14 84 1033.6
20200220225328 47 61 2.0 9.0 0.00 0.17 0.14 85 1033.4
20200220224326 47 336 2.0 9.0 0.00 0.17 0.14 85 1033.3
20200220223340 46 329 1.0 13.0 0.00 0.17 0.14 86 1032.9
20200220222348 46 30 2.0 10.0 0.00 0.17 0.14 87 1032.6
20200220221350 46 313 1.0 6.0 0.00 0.17 0.14 88 1032.5
20200220220325 46 5 1.0 9.0 0.00 0.17 0.14 88 1032.7
20200220215323 46 13 3.0 8.0 0.00 0.17 0.14 88 1032.7
20200220214341 45 33 3.0 11.0 0.00 0.17 0.14 88 1032.3
20200220213349 45 75 2.0 8.0 0.00 0.17 0.14 89 1032.1
20200220212332 45 41 2.0 11.0 0.00 0.17 0.14 89 1032.2
20200220211334 45 10 1.0 7.0 0.00 0.17 0.14 89 1032.0
20200220210329 45 28 2.0 11.0 0.00 0.17 0.14 90 1032.1
20200220204337 45 313 2.0 10.0 0.00 0.17 0.14 90 1031.9
20200220203349 45 360 3.0 8.0 0.00 0.17 0.14 91 1032.0
20200220202347 45 360 2.0 12.0 0.00 0.17 0.14 91 1031.9
20200220200357 44 360 3.0 12.0 0.00 0.17 0.14 92 1031.9
20200220195407 44 355 1.0 13.0 0.00 0.17 0.14 92 1031.9
20200220194415 44 355 2.0 9.0 0.00 0.17 0.14 93 1031.9
20200220193344 44 335 3.0 14.0 0.00 0.17 0.14 93 1032.2
20200220192421 44 311 1.0 11.0 0.00 0.17 0.14 93 1032.1
20200220191344 44 313 2.0 12.0 0.01 0.17 0.14 93 1032.2
20200220190420 44 360 2.0 11.0 0.01 0.17 0.14 93 1032.0
20200220185346 43 22 1.0 6.0 0.01 0.17 0.14 94 1032.1
20200220183356 43 334 1.0 8.0 0.02 0.17 0.14 94 1032.3
20200220182325 43 46 2.0 6.0 0.02 0.17 0.14 94 1032.3
20200220180421 43 333 2.0 10.0 0.01 0.16 0.13 94 1032.5
20200220175421 43 26 2.0 6.0 0.02 0.16 0.13 94 1032.3
20200220174354 43 315 2.0 8.0 0.03 0.16 0.13 94 1032.5
20200220173421 43 14 1.0 5.0 0.02 0.15 0.12 94 1032.3
20200220171340 43 355 2.0 8.0 0.03 0.15 0.12 94 1032.3
20200220170410 43 5 1.0 10.0 0.03 0.15 0.12 94 1031.9
20200220165329 43 355 2.0 8.0 0.02 0.14 0.11 94 1031.8
20200220164405 43 334 1.0 8.0 0.01 0.13 0.10 94 1031.6
20200220163329 43 31 1.0 3.0 0.01 0.13 0.10 94 1031.6
20200220162337 43 46 1.0 5.0 0.02 0.13 0.10 94 1031.6
20200220161355 43 348 1.0 6.0 0.01 0.12 0.09 94 1031.2
20200220160418 43 19 1.0 4.0 0.01 0.12 0.09 94 1030.9
20200220154338 43 34 0.0 9.0 0.02 0.12 0.09 94 1030.6
20200220153353 43 38 1.0 8.0 0.02 0.12 0.09 94 1030.4
20200220152414 43 67 2.0 8.0 0.01 0.11 0.08 94 1030.3
20200220151440 43 61 2.0 12.0 0.01 0.11 0.08 94 1030.0
20200220150349 44 36 2.0 10.0 0.00 0.10 0.07 94 1029.7
20200220145402 44 302 2.0 10.0 0.00 0.10 0.07 94 1029.5
20200220144328 44 351 1.0 9.0 0.00 0.10 0.07 94 1029.1
20200220143359 44 296 1.0 8.0 0.00 0.10 0.07 94 1028.9
20200220142328 44 318 0.0 8.0 0.01 0.10 0.07 94 1028.5
20200220141359 44 360 1.0 6.0 0.01 0.10 0.07 94 1028.4
20200220140332 44 315 1.0 5.0 0.01 0.10 0.07 94 1027.8
20200220134354 44 333 1.0 6.0 0.03 0.10 0.07 94 1027.6